Hourly Data Report for September 27, 2017

All times are specified in Local Standard Time (LST). Add 1 hour to adjust for Daylight Saving Time where and when it is observed.

WINNIPEG A CS
MANITOBA

49°55'00.000" N
97°14'58.000" W
238.70 m
502S001
71849
XWG

Download Data

Hourly Data (September 2017)
Hourly Data Report for September 27, 2017
Temp Definition
°C
Dew Point Temp Definition
°C
Rel Hum Definition
%
Wind Dir Definition
10's deg

Wind Spd Definition
km/h
Visibility Definition
km
Stn Press Definition
kPa
Hmdx Definition


Wind Chill Definition


Weather Definition


TIME
00:00 6.0 5.2 95 21 11   99.00     LegendNANA
01:00 6.6 5.7 94 21 7   98.99     LegendNANA
02:00 5.8 4.8 94 18 9   98.97     LegendNANA
03:00 4.7 4.2 96 21 7   98.96     LegendNANA
04:00 4.4 3.9 96 22 10   98.93     LegendNANA
05:00 5.4 4.4 94 18 10   98.92     LegendNANA
06:00 2.8 2.4 97 16 10   98.90     LegendNANA
07:00 4.7 4.3 97 17 10   98.90     LegendNANA
08:00 6.5 5.5 93 17 11   98.91     LegendNANA
09:00 9.4 7.2 86 18 12   98.91     LegendNANA
10:00 12.1 8.6 79 19 12   98.90     LegendNANA
11:00 14.4 9.5 72 20 16   98.86     LegendNANA
12:00 15.7 8.9 64 25 15   98.88     LegendNANA
13:00 17.3 9.0 58 27 15   98.86     LegendNANA
14:00 18.3 8.8 54 29 19   98.85     LegendNANA
15:00 19.2 8.6 50 30 20   98.84     LegendNANA
16:00 18.4 9.3 55 30 17   98.85     LegendNANA
17:00 17.2 8.4 56 31 15   98.87     LegendNANA
18:00 13.8 8.0 68 30 9   98.88     LegendNANA
19:00 11.3 8.3 81 27 9   98.92     LegendNANA
20:00 10.4 7.9 84 25 10   98.94     LegendNANA
21:00 9.6 7.0 84 25 9   98.93     LegendNANA
22:00 9.3 6.6 83 25 10   98.94     LegendNANA
23:00 8.6 6.0 83 26 12   98.95     LegendNANA

Notes on Data Quality.

Legend

  • E = Estimated
  • M = Missing
  • NA = Not Available
  • ‡ = Partner data that is not subject to review by the National Climate Archives
Date modified: